Location: Paralde Spring
(38.5794°N, 119.0140°W)
Time: 17:27:28
(UTC+00:00)

ALOS - Pass Details

Date: 18 September 2020
Orbit: 683 x 686 km, 97.9° (Epoch: 20 October)

Event Time Altitude Azimuth Distance (km) Brightness Sun altitude
Rises 12:55:53 0° 7° (N) 3,054 5.8 -9.6°
Reaches altitude 10° 12:58:09 10° 4° (N) 2,134 5.0 -9.1°
Maximum altitude 13:02:44 58° 286° (WNW) 800 2.3 -8.2°
Drops below altitude 10° 13:07:16 10° 208° (SSW) 2,119 4.5 -7.4°
Sets 13:09:31 0° 204° (SSW) 3,030 5.3 -6.9°
